Weather Roundup
Issued by NWS Corpus Christi, TX

Home | Current Version | Previous Version | Text Only | Print | Product List | Glossary On
Versions: 1 2 3 4 5 6 7 8 9 10 11 12 13 14 15 16 17 18 19 20 21 22 23 24 25 26 27 28 29 30 31 32 33 34 35 36 37 38 39 40 41 42 43 44 45 46 47 48 49 50
000
ASUS44 KCRP 170810
HRRCRP

SOUTH TEXAS REGIONAL WEATHER ROUNDUP
NATIONAL WEATHER SERVICE CORPUS CHRISTI TX
300 AM CDT THU AUG 17 2017


TXZ229>244-170900-
...CORPUS CHRISTI AREA OBSERVATIONS...

CITY           SKY/WX    TMP DP  RH WIND       PRES   REMARKS
CORPUS CHRISTI PTCLDY    83  79  88 S14G20    29.97S HX  94
NAS CORPUS CHR CLOUDY    85  81  88 S14       29.98R HX 100
ROCKPORT       CLEAR     84  79  85 S13G23    29.97S HX  96
KINGSVILLE NAS CLEAR     83  80  91 S12       29.97R HX  95
ALICE          CLEAR     82  77  84 S12       29.96S HX  90
FALFURRIAS     PTCLDY    83  77  82 S7        29.96S HX  91
$$

...VICTORIA AREA OBSERVATIONS...

CITY           SKY/WX    TMP DP  RH WIND       PRES   REMARKS
VICTORIA       CLOUDY    83  78  85 S15       29.98F HX  93
BEEVILLE       CLOUDY    83  79  86 S13       29.98S HX  94
PLEASANTON     PTCLDY    81  74  78 S13       29.98R
SAN ANTONIO    MOCLDY    81  74  79 S10       29.98F
$$

...LAREDO AREA OBSERVATIONS...

CITY           SKY/WX    TMP DP  RH WIND       PRES   REMARKS
LAREDO         PTCLDY    84  74  71 SE14      29.94R HX  91
COTULLA        PTCLDY    83  72  69 SE12      29.95S
DEL RIO        CLOUDY    81  71  71 E5        29.93R
MCALLEN        MOCLDY    84  77  79 S18       29.96S HX  94
HEBBRONVILLE   PTCLDY    81  73  78 S12       29.98S
$$

...OTHER TEXAS OBSERVATIONS...

CITY           SKY/WX    TMP DP  RH WIND       PRES   REMARKS
BROWNSVILLE    PTCLDY    81  79  94 S10       29.98S HX  90
HOUSTON        PTCLDY    84  78  82 S7        29.99S HX  95
COL. STATION   CLOUDY    82  78  88 S13       29.98R HX  91
AUSTIN         MOCLDY    82  77  84 S15       29.97R HX  90
WACO           CLOUDY    83  74  74 S13       29.97R
FORT WORTH     MOCLDY    86  72  62 S15       29.92R HX  92
WICHITA FALLS  TSTM     N/A N/A N/A MISG      29.91F
LUBBOCK        CLEAR     72  64  78 S3        30.07
EL PASO        PTCLDY    74  60  61 E6        30.05S
$$

...MARINE OBSERVATIONS...

STATION/POSITION TIME  SKY/WX   TEMP    WIND        PRES    VSBY  WAVE   SWELL
                                AIR SEA DIR/SP/G                  HT/PER HT/PER
                 (UTC)          (F)     (DEG/KT/KT) (MB)    (MI)  (FT/S) (FT/S)
PORT ARANSAS     0700            84 86  150/ 15/ 17 1015.0S
BUOY 90 E PORT A 0750            86 85  170/ 17/ 19 1015.8          6/ 7
BUOY 45 SE BAFFI 0750            85     170/ 19/ 23 1014.2F         6/ 7
BUOY 200 E PT IS 0750            86 87  160/ 14/ 16 1016.4R         5/ 7
BUOY 15 E GALVES 0750            86 87  200/ 17/ 21 1015.7R         5/ 6   2/11
$$




USA.gov is the U.S. government's official web portal to all federal, state and local government web resources and services.